Weather History for Minneapolis Crystal, MN

Change the Weather History Date:

Friday, May 31, 2013

  Actual Average Record
Temperature  
Mean Temperature 70 °F -  
Max Temperature 79 °F 68 °F 87 °F (2014)
Min Temperature 62 °F 48 °F 40 °F (1993)
Cooling Degree Days 4    
Growing Degree Days 20 (Base 50)    
Moisture  
Dew Point 56 °F    
Average Humidity 69    
Maximum Humidity 93    
Minimum Humidity 41    
Precipitation  
Precipitation 0.19 in - - ()
Sea Level Pressure  
Sea Level Pressure 29.51 in    
Wind  
Wind Speed 12 mph (South)    
Max Wind Speed 25 mph    
Max Gust Speed 40 mph    
Visibility 9 miles    
Events Rain , Thunderstorm    
Averages and records for this station are not official NWS values.
T = Trace of Precipitation, MM = Missing Value Source: NWS Daily Summary

Daily Weather History Graph

Daily Weather History Graph

Search for Another Location

Airport:

Trip Planner

Search our weather history database for the weather conditions in past years. The results will help you decide how hot, cold, wet, or windy it might be!

Date:

Astronomy

May. 31, 2013 Rise Set
Actual Time 5:30 AM CDT 8:52 PM CDT
Civil Twilight 4:53 AM CDT 9:29 PM CDT
Nautical Twilight 4:06 AM CDT 10:16 PM CDT
Astronomical Twilight 3:06 AM CDT 11:17 PM CDT
Moon 1:14 AM CDT (5/31) 1:00 PM CDT (5/31)
Length of Visible Light 16h 35m
Length of Day
15h 22m
Waning Gibbous, 51% of the Moon is Illuminated
May 31
Waning Gibbous
May 31
Last Quarter
Jun 8
New
Jun 16
First Quarter
Jun 23
Full

Hourly Weather History & Observations

Time (CDT) Temp. Dew Point Humidity Pressure Visibility Wind Dir Wind Speed Gust Speed Precip Events Conditions
12:53 AM 64.9 °F 60.1 °F 84% 29.53 in 10.0 mi SSE 10.4 mph - N/A   Partly Cloudy
1:12 AM 64.4 °F 60.8 °F 88% 29.53 in 10.0 mi SSE 10.4 mph - N/A   Mostly Cloudy
1:33 AM 64.4 °F 60.8 °F 88% 29.52 in 10.0 mi SSE 11.5 mph - 0.00 in Rain , Thunderstorm Light Rain
1:46 AM 64.4 °F 60.8 °F 88% 29.54 in 1.8 mi South 20.7 mph 35.7 mph 0.17 in Rain , Thunderstorm Heavy Thunderstorms and Rain
1:53 AM 64.9 °F 61.0 °F 87% 29.52 in 2.0 mi South 16.1 mph 31.1 mph 0.19 in Rain , Thunderstorm Thunderstorms and Rain
1:59 AM 66.2 °F 60.8 °F 83% 29.53 in 7.0 mi South 10.4 mph 25.3 mph 0.00 in Rain , Thunderstorm Light Thunderstorms and Rain
2:06 AM 64.4 °F 60.8 °F 88% 29.52 in 10.0 mi South 12.7 mph - 0.00 in Rain , Thunderstorm Light Thunderstorms and Rain
2:11 AM 64.4 °F 60.8 °F 88% 29.52 in 10.0 mi South 10.4 mph - 0.00 in   Overcast
2:23 AM 64.4 °F 60.8 °F 88% 29.52 in 10.0 mi SSE 10.4 mph - 0.00 in   Mostly Cloudy
2:53 AM 63.0 °F 60.1 °F 90% 29.50 in 10.0 mi SE 8.1 mph - 0.00 in   Partly Cloudy
3:53 AM 62.1 °F 60.1 °F 93% 29.51 in 10.0 mi SE 3.5 mph - N/A   Partly Cloudy
4:53 AM 62.1 °F 60.1 °F 93% 29.52 in 10.0 mi SSE 6.9 mph - N/A   Clear
5:53 AM 62.1 °F 59.0 °F 90% 29.52 in 10.0 mi SE 9.2 mph - N/A   Clear
6:53 AM 63.0 °F 59.0 °F 87% 29.51 in 10.0 mi SSE 12.7 mph - N/A   Clear
7:53 AM 64.9 °F 57.0 °F 75% 29.51 in 10.0 mi SSE 11.5 mph - N/A   Clear
8:53 AM 66.9 °F 54.0 °F 63% 29.51 in 10.0 mi SSW 15.0 mph 25.3 mph N/A   Clear
9:53 AM 70.0 °F 51.1 °F 51% 29.51 in 10.0 mi SSW 19.6 mph 24.2 mph N/A   Clear
10:53 AM 73.0 °F 52.0 °F 48% 29.50 in 10.0 mi South 21.9 mph 26.5 mph N/A   Clear
11:53 AM 73.9 °F 54.0 °F 50% 29.51 in 10.0 mi SSW 15.0 mph 27.6 mph N/A   Clear
12:53 PM 77.0 °F 55.0 °F 47% 29.51 in 10.0 mi South 18.4 mph 27.6 mph N/A   Partly Cloudy
1:53 PM 77.0 °F 55.9 °F 48% 29.49 in 10.0 mi SSW 15.0 mph 28.8 mph N/A   Partly Cloudy
2:53 PM 75.9 °F 55.0 °F 48% 29.48 in 10.0 mi SSW 25.3 mph 40.3 mph 0.00 in   Mostly Cloudy
3:53 PM 77.0 °F 52.0 °F 42% 29.49 in 10.0 mi SW 20.7 mph 27.6 mph N/A   Mostly Cloudy
4:53 PM 75.9 °F 51.1 °F 42% 29.49 in 10.0 mi SSW 15.0 mph 24.2 mph N/A   Mostly Cloudy
5:53 PM 73.9 °F 48.9 °F 41% 29.50 in 10.0 mi SW 12.7 mph 20.7 mph N/A   Mostly Cloudy
6:53 PM 73.9 °F 51.1 °F 45% 29.51 in 10.0 mi SW 9.2 mph - N/A   Partly Cloudy
7:53 PM 71.1 °F 50.0 °F 47% 29.53 in 10.0 mi SW 4.6 mph - N/A   Overcast
8:53 PM 70.0 °F 48.9 °F 47% 29.52 in 10.0 mi SSW 4.6 mph - N/A   Overcast
9:53 PM 66.9 °F 51.1 °F 57% 29.51 in 10.0 mi Calm Calm - N/A   Overcast
10:53 PM 64.0 °F 55.9 °F 75% 29.53 in 10.0 mi SE 4.6 mph - N/A   Overcast
11:53 PM 64.9 °F 55.9 °F 73% 29.54 in 10.0 mi Calm Calm - N/A   Mostly Cloudy